Weather History for Stuart, FL

Change the Weather History Date:

Saturday, March 16, 2013

  Actual Average Record
Temperature  
Mean Temperature 60 °F -  
Max Temperature 73 °F 79 °F 91 °F (2001)
Min Temperature 46 °F 60 °F 39 °F (1970)
Degree Days  
Heating Degree Days 6    
Growing Degree Days 10 (Base 50)    
Moisture  
Dew Point 48 °F    
Average Humidity 71    
Maximum Humidity 100    
Minimum Humidity 29    
Precipitation  
Precipitation 0.00 in - - ()
Sea Level Pressure  
Sea Level Pressure 30.17 in    
Wind  
Wind Speed 2 mph (SSE)    
Max Wind Speed 16 mph    
Max Gust Speed 22 mph    
Visibility 9 miles    
Events      
Averages and records for this station are not official NWS values.
T = Trace of Precipitation, MM = Missing Value Source: NWS Daily Summary

Daily Weather History Graph

Daily Weather History Graph

Search for Another Location

Airport:

Trip Planner

Search our weather history database for the weather conditions in past years. The results will help you decide how hot, cold, wet, or windy it might be!

Date:

Astronomy

Mar. 16, 2013 Rise Set
Actual Time 7:28 AM EDT 7:30 PM EDT
Civil Twilight 7:05 AM EDT 7:53 PM EDT
Nautical Twilight 6:38 AM EDT 8:20 PM EDT
Astronomical Twilight 6:11 AM EDT 8:47 PM EDT
Moon 10:24 AM EDT (3/16) No Moon Set
Length of Visible Light 12h 47m
Length of Day
12h 01m
Waxing Crescent, 23% of the Moon is Illuminated
Mar 16
Waxing Crescent
Mar 19
First Quarter
Mar 27
Full
Apr 3
Last Quarter
Apr 10
New

Hourly Weather History & Observations

Time (EDT) Temp. Windchill Dew Point Humidity Pressure Visibility Wind Dir Wind Speed Gust Speed Precip Events Conditions
12:15 AM 53.6 °F - 50.0 °F 88% 30.21 in 10.0 mi Calm Calm - N/A   Clear
12:35 AM 53.6 °F - 50.0 °F 88% 30.21 in 10.0 mi Calm Calm - N/A   Clear
12:55 AM 53.6 °F - 50.0 °F 88% 30.21 in 10.0 mi Calm Calm - N/A   Clear
1:15 AM 53.6 °F - 50.0 °F 88% 30.21 in 10.0 mi Calm Calm - N/A   Clear
1:35 AM 51.8 °F - 50.0 °F 94% 30.20 in 10.0 mi Calm Calm - N/A   Clear
1:55 AM 51.8 °F - 50.0 °F 94% 30.20 in 10.0 mi Calm Calm - N/A   Clear
2:15 AM 51.8 °F - 50.0 °F 94% 30.20 in 10.0 mi Calm Calm - N/A   Clear
2:35 AM 50.0 °F - 48.2 °F 94% 30.19 in 10.0 mi Calm Calm - N/A   Clear
2:55 AM 50.0 °F - 48.2 °F 94% 30.18 in 10.0 mi Calm Calm - N/A   Clear
3:15 AM 50.0 °F - 48.2 °F 94% 30.18 in 10.0 mi Calm Calm - N/A   Clear
3:35 AM 50.0 °F - 46.4 °F 87% 30.18 in 5.0 mi Calm Calm - N/A   Clear
3:55 AM 50.0 °F - 48.2 °F 94% 30.17 in 7.0 mi Calm Calm - N/A   Clear
4:15 AM 50.0 °F - 46.4 °F 87% 30.17 in 1.0 mi Calm Calm - N/A   Mist
4:35 AM 50.0 °F - 46.4 °F 87% 30.17 in 1.0 mi Calm Calm - N/A   Mist
4:55 AM 50.0 °F - 48.2 °F 94% 30.17 in 10.0 mi Calm Calm - N/A   Clear
5:15 AM 50.0 °F - 46.4 °F 87% 30.17 in 10.0 mi Calm Calm - N/A   Clear
5:35 AM 48.2 °F - 46.4 °F 93% 30.17 in 7.0 mi Calm Calm - N/A   Clear
5:55 AM 46.4 °F - 46.4 °F 100% 30.18 in 7.0 mi Calm Calm - N/A   Clear
6:15 AM 46.4 °F 45.2 °F 46.4 °F 100% 30.17 in 5.0 mi South 3.5 mph - N/A   Clear
7:47 AM 50.0 °F - 48.2 °F 94% 30.20 in 7.0 mi Calm Calm - N/A   Partly Cloudy
8:47 AM 55.4 °F - 53.6 °F 94% 30.20 in 7.0 mi Calm Calm - N/A   Partly Cloudy
9:47 AM 64.4 °F - 51.8 °F 64% 30.22 in 7.0 mi WNW 5.8 mph - N/A   Partly Cloudy
10:47 AM 69.8 °F - 42.8 °F 38% 30.22 in 7.0 mi South 5.8 mph - N/A   Scattered Clouds
11:47 AM 71.6 °F - 42.8 °F 35% 30.21 in 7.0 mi South 6.9 mph - N/A   Scattered Clouds
12:47 PM 71.6 °F - 37.4 °F 29% 30.19 in 10.0 mi East 9.2 mph - N/A   Partly Cloudy
1:47 PM 73.4 °F - 44.6 °F 36% 30.17 in 10.0 mi ESE 10.4 mph - N/A   Partly Cloudy
3:47 PM 73.4 °F - 46.4 °F 38% 30.12 in 10.0 mi ESE 13.8 mph 21.9 mph N/A   Partly Cloudy
4:47 PM 73.4 °F - 46.4 °F 38% 30.11 in 10.0 mi East 16.1 mph 21.9 mph N/A   Partly Cloudy
5:47 PM 73.4 °F - 44.6 °F 36% 30.10 in 10.0 mi ESE 16.1 mph 21.9 mph N/A   Partly Cloudy
6:47 PM 71.6 °F - 44.6 °F 38% 30.11 in 10.0 mi ESE 13.8 mph 19.6 mph N/A   Clear
8:15 PM 68.0 °F - 50.0 °F 52% 30.12 in 10.0 mi SSE 6.9 mph - N/A   Clear
8:35 PM 66.2 °F - 50.0 °F 56% 30.13 in 10.0 mi SSE 5.8 mph - N/A   Clear
8:55 PM 66.2 °F - 50.0 °F 56% 30.13 in 10.0 mi SSE 4.6 mph - N/A   Clear
9:15 PM 66.2 °F - 50.0 °F 56% 30.14 in 10.0 mi South 3.5 mph - N/A   Clear
9:35 PM 64.4 °F - 50.0 °F 59% 30.14 in 10.0 mi South 4.6 mph - N/A   Clear
9:55 PM 64.4 °F - 50.0 °F 59% 30.14 in 10.0 mi South 6.9 mph - N/A   Clear
10:15 PM 64.4 °F - 50.0 °F 59% 30.14 in 10.0 mi South 5.8 mph - N/A   Clear
10:35 PM 64.4 °F - 50.0 °F 59% 30.15 in 10.0 mi South 6.9 mph - N/A   Clear
10:55 PM 62.6 °F - 50.0 °F 63% 30.15 in 10.0 mi SSW 5.8 mph - N/A   Clear
11:15 PM 62.6 °F - 50.0 °F 63% 30.15 in 10.0 mi SSW 5.8 mph - N/A   Clear
11:35 PM 62.6 °F - 51.8 °F 68% 30.15 in 10.0 mi SSW 5.8 mph - N/A   Clear
11:55 PM 62.6 °F - 51.8 °F 68% 30.15 in 10.0 mi SSW 8.1 mph - N/A   Clear